Regional Weather Roundup
Issued by NWS

Home | Current Version | Previous Version | Graphics & Text | Print | Product List | Glossary On
Versions: 1 2 3 4 5 6 7 8 9 10 11 12 13 14 15 16 17 18 19 20 21 22 23 24 25 26 27 28 29 30 31 32 33 34 35 36 37 38 39 40 41 42 43 44 45 46 47 48 49 50
701
ASUS45 KBOI 251110
RWRID

IDAHO REGIONAL WEATHER ROUNDUP
NATIONAL WEATHER SERVICE BOISE ID
500 AM MDT MON SEP 25 2017

NOTE: "FAIR" INDICATES FEW OR NO CLOUDS BELOW 12000 FEET
WITH NO SIGNIFICANT WEATHER AND/OR OBSTRUCTIONS TO VISIBILITY

IDZ012-014-251200-
SOUTHWEST IDAHO


CITY           SKY/WX    TMP DP  RH WIND       PRES   REMARKS
BOISE          CLEAR     41  35  79 SW7       30.07R
CALDWELL       CLEAR     43  37  79 W9        30.08R
MOUNTAIN HOME  CLEAR     36  33  90 CALM      30.08R
$$

IDZ016-017-251200-
SOUTHCENTRAL IDAHO


CITY           SKY/WX    TMP DP  RH WIND       PRES   REMARKS
BURLEY         MOCLDY    37  30  75 CALM      30.09R
JEROME         CLEAR     37  32  82 SE6       30.09R WCI  32
TWIN FALLS     CLEAR     42  32  67 S13       30.09S
$$

IDZ019>023-251200-
SOUTHEAST IDAHO


CITY           SKY/WX    TMP DP  RH WIND       PRES   REMARKS
IDAHO FALLS    CLEAR     32  30  92 CALM      30.11S
POCATELLO      CLOUDY    41  35  79 E3        30.11R
REXBURG        CLEAR     34  30  85 SW6       30.10S WCI  29
$$

IDZ006-010-011-018-031-032-251200-
CENTRAL IDAHO MOUNTAINS


CITY           SKY/WX    TMP DP  RH WIND       PRES   REMARKS
MCCALL         CLEAR     31  30  96 CALM      30.11S
HAILEY         MOCLDY    34  28  80 NW7       30.13R WCI  28
STANLEY          N/A     23  20  88 S3        30.16S
SALMON         CLOUDY    41  36  82 CALM      30.12S
CHALLIS        MOCLDY    32  28  85 CALM      30.14R
$$

IDZ002-004-006-007-026-251200-
NORTHERN IDAHO


CITY           SKY/WX    TMP DP  RH WIND       PRES   REMARKS
LEWISTON       CLOUDY    54  45  71 E9        30.08S
LOWELL           N/A     45  42  89 CALM      30.16R
COEUR D`ALENE  CLOUDY    53  45  74 S5        30.07S
MULLAN PASS    CLOUDY    39  34  82 NW6       30.11S WCI  35
$$




USA.gov is the U.S. government's official web portal to all federal, state and local government web resources and services.